Luverne, MN

5:58 PM CDT on April 23, 2017 (GMT -0500)
Luverne

Weather History for KLYV - December, 2013

Change the Weather History Date:

Sunday, December 15, 2013

  Actual Average (KPQN) Record (KPQN)
Temperature  
Mean Temperature 8 °F -  
Max Temperature 12 °F 27 °F 50 °F (2004)
Min Temperature 5 °F 12 °F -13 °F (2008)
Degree Days  
Heating Degree Days 56    
Moisture  
Dew Point 3 °F    
Average Humidity 76    
Maximum Humidity 85    
Minimum Humidity 67    
Precipitation  
Precipitation 0.00 in - - ()
Sea Level Pressure  
Sea Level Pressure 30.05 in    
Wind  
Wind Speed 6 mph (East)    
Max Wind Speed 10 mph    
Max Gust Speed -    
Visibility 10 miles    
Events Snow    
Averages and records for this station are not official NWS values.
T = Trace of Precipitation, MM = Missing Value Source: NWS Daily Summary

Daily Weather History Graph

Daily Weather History Graph

Search for Another Location

Airport or City:

Trip Planner

Search our weather history database for the weather conditions in past years. The results will help you decide how hot, cold, wet, or windy it might be!

Date:

Astronomy

Dec. 15, 2013 Rise Set
Actual Time 7:51 AM CST 4:48 PM CST
Civil Twilight 7:18 AM CST 5:21 PM CST
Nautical Twilight 6:42 AM CST 5:57 PM CST
Astronomical Twilight 6:07 AM CST 6:32 PM CST
Moon 3:56 PM CST (12/15) 6:06 AM CST (12/15)
Length of Visible Light 10h 02m
Length of Day
8h 57m
Waxing Gibbous, 98% of the Moon is Illuminated
Dec 15
Waxing Gibbous
Dec 17
Full
Dec 25
Last Quarter
Jan 1
New
Jan 7
First Quarter

Hourly Weather History & Observations

Time (CST) Temp. Windchill Dew Point Humidity Pressure Visibility Wind Dir Wind Speed Gust Speed Precip Events Conditions
12:13 AM 10.4 °F 4.0 °F 5.0 °F 79% 30.11 in 10.0 mi North 3.5 mph - N/A   Overcast
12:34 AM 10.4 °F - 5.0 °F 79% 30.10 in 10.0 mi Calm Calm - N/A   Overcast
12:54 AM 10.4 °F - 6.8 °F 85% 30.09 in 10.0 mi Calm Calm - N/A   Overcast
1:13 AM 10.4 °F - 6.8 °F 85% 30.09 in 10.0 mi Calm Calm - N/A   Overcast
1:34 AM 12.2 °F 6.1 °F 6.8 °F 79% 30.10 in 10.0 mi West 3.5 mph - N/A   Overcast
1:54 AM 12.2 °F - 6.8 °F 79% 30.08 in 10.0 mi Calm Calm - N/A   Overcast
2:13 AM 12.2 °F - 6.8 °F 79% 30.09 in 10.0 mi Calm Calm - N/A   Overcast
2:34 AM 12.2 °F 6.1 °F 6.8 °F 79% 30.09 in 4.0 mi North 3.5 mph - N/A Snow Light Snow
2:54 AM 12.2 °F - 6.8 °F 79% 30.09 in 4.0 mi Calm Calm - N/A Snow Light Snow
3:13 AM 12.2 °F 4.3 °F 8.6 °F 85% 30.09 in 7.0 mi NE 4.6 mph - N/A Snow Light Snow
3:34 AM 12.2 °F 1.7 °F 6.8 °F 79% 30.08 in 10.0 mi ENE 6.9 mph - N/A   Overcast
3:54 AM 12.2 °F 2.9 °F 5.0 °F 73% 30.08 in 10.0 mi NE 5.8 mph - N/A   Overcast
4:13 AM 12.2 °F 1.7 °F 5.0 °F 73% 30.10 in 10.0 mi NNE 6.9 mph - N/A   Overcast
4:34 AM 10.4 °F -2.4 °F 5.0 °F 79% 30.08 in 10.0 mi NE 9.2 mph - N/A   Overcast
4:54 AM 10.4 °F -1.5 °F 5.0 °F 79% 30.06 in 10.0 mi ENE 8.1 mph - N/A   Scattered Clouds
5:13 AM 10.4 °F 0.8 °F 3.2 °F 73% 30.07 in 10.0 mi NNE 5.8 mph - N/A   Mostly Cloudy
5:34 AM 10.4 °F -3.3 °F 3.2 °F 73% 30.08 in 10.0 mi NE 10.4 mph - N/A   Mostly Cloudy
5:54 AM 8.6 °F -4.7 °F 3.2 °F 79% 30.07 in 10.0 mi NE 9.2 mph - N/A   Mostly Cloudy
6:13 AM 8.6 °F -3.7 °F 3.2 °F 79% 30.07 in 10.0 mi NE 8.1 mph - N/A   Overcast
6:34 AM 8.6 °F -3.7 °F 1.4 °F 73% 30.07 in 10.0 mi NE 8.1 mph - N/A   Overcast
6:54 AM 8.6 °F -2.6 °F 1.4 °F 73% 30.06 in 10.0 mi ENE 6.9 mph - N/A   Overcast
7:13 AM 6.8 °F -3.5 °F 1.4 °F 79% 30.07 in 10.0 mi ENE 5.8 mph - N/A   Overcast
7:34 AM 6.8 °F -4.8 °F 1.4 °F 79% 30.07 in 10.0 mi ENE 6.9 mph - N/A   Overcast
7:53 AM 6.8 °F -4.8 °F -0.4 °F 72% 30.06 in 10.0 mi NE 6.9 mph - N/A   Overcast
8:14 AM 6.8 °F -4.8 °F 1.4 °F 79% 30.06 in 10.0 mi NE 6.9 mph - N/A   Overcast
8:34 AM 6.8 °F -5.9 °F -0.4 °F 72% 30.08 in 10.0 mi NE 8.1 mph - N/A   Overcast
8:54 AM 6.8 °F -5.9 °F -0.4 °F 72% 30.07 in 10.0 mi ENE 8.1 mph - N/A   Overcast
9:14 AM 5.0 °F -4.1 °F -0.4 °F 78% 30.09 in 10.0 mi NNE 4.6 mph - N/A Snow Light Snow
9:34 AM 6.8 °F -2.0 °F -0.4 °F 72% 30.09 in 10.0 mi NE 4.6 mph - N/A Snow Light Snow
9:54 AM 6.8 °F -4.8 °F -0.4 °F 72% 30.08 in 10.0 mi ENE 6.9 mph - N/A   Overcast
10:14 AM 8.6 °F -3.7 °F -0.4 °F 67% 30.09 in 10.0 mi NE 8.1 mph - N/A   Overcast
10:34 AM 8.6 °F -3.7 °F -0.4 °F 67% 30.10 in 10.0 mi East 8.1 mph - N/A Snow Light Snow
10:54 AM 8.6 °F -1.3 °F -0.4 °F 67% 30.09 in 10.0 mi ENE 5.8 mph - N/A   Overcast
11:14 AM 8.6 °F -3.7 °F -0.4 °F 67% 30.08 in 10.0 mi East 8.1 mph - N/A   Overcast
11:34 AM 8.6 °F -3.7 °F -0.4 °F 67% 30.06 in 10.0 mi East 8.1 mph - N/A   Overcast
11:54 AM 8.6 °F -3.7 °F 1.4 °F 73% 30.06 in 10.0 mi ENE 8.1 mph - N/A   Overcast
12:14 PM 8.6 °F -4.7 °F 1.4 °F 73% 30.05 in 10.0 mi East 9.2 mph - N/A   Overcast
12:34 PM 8.6 °F -3.7 °F 1.4 °F 73% 30.03 in 10.0 mi East 8.1 mph - N/A   Overcast
12:54 PM 8.6 °F -2.6 °F 1.4 °F 73% 30.03 in 10.0 mi East 6.9 mph - N/A   Overcast
1:14 PM 8.6 °F -3.7 °F 1.4 °F 73% 30.02 in 10.0 mi ESE 8.1 mph - N/A   Overcast
1:34 PM 8.6 °F -3.7 °F 1.4 °F 73% 30.01 in 10.0 mi East 8.1 mph - N/A   Overcast
1:54 PM 8.6 °F -2.6 °F 1.4 °F 73% 30.02 in 10.0 mi East 6.9 mph - N/A   Overcast
2:13 PM 10.4 °F -0.4 °F 1.4 °F 67% 30.01 in 7.0 mi East 6.9 mph - N/A   Overcast
2:34 PM 10.4 °F -1.5 °F 1.4 °F 67% 30.01 in 10.0 mi East 8.1 mph - N/A   Overcast
2:54 PM 10.4 °F -2.4 °F 3.2 °F 73% 30.01 in 10.0 mi East 9.2 mph - N/A   Overcast
3:14 PM 10.4 °F -1.5 °F 3.2 °F 73% 30.02 in 10.0 mi East 8.1 mph - N/A Snow Light Snow
3:34 PM 10.4 °F -1.5 °F 3.2 °F 73% 30.01 in 7.0 mi East 8.1 mph - N/A Snow Light Snow
3:53 PM 10.4 °F -2.4 °F 3.2 °F 73% 30.00 in 10.0 mi East 9.2 mph - N/A Snow Light Snow
4:14 PM 10.4 °F -1.5 °F 3.2 °F 73% 30.00 in 10.0 mi East 8.1 mph - N/A Snow Light Snow
4:34 PM 10.4 °F -3.3 °F 3.2 °F 73% 30.01 in 10.0 mi ESE 10.4 mph - N/A   Overcast
4:53 PM 10.4 °F -2.4 °F 3.2 °F 73% 30.00 in 10.0 mi ESE 9.2 mph - N/A   Overcast
5:14 PM 10.4 °F -0.4 °F 3.2 °F 73% 30.02 in 10.0 mi ESE 6.9 mph - N/A   Overcast
5:33 PM 10.4 °F -0.4 °F 3.2 °F 73% 30.02 in 10.0 mi ESE 6.9 mph - N/A   Overcast
5:54 PM 10.4 °F -2.4 °F 5.0 °F 79% 30.02 in 10.0 mi East 9.2 mph - N/A   Overcast
6:13 PM 10.4 °F -2.4 °F 5.0 °F 79% 30.01 in 5.0 mi ESE 9.2 mph - N/A   Haze
6:34 PM 10.4 °F -2.4 °F 5.0 °F 79% 30.01 in 10.0 mi ESE 9.2 mph - N/A   Overcast
6:53 PM 10.4 °F -1.5 °F 5.0 °F 79% 30.01 in 10.0 mi ESE 8.1 mph - N/A   Overcast
7:14 PM 10.4 °F -2.4 °F 5.0 °F 79% 30.02 in 10.0 mi ESE 9.2 mph - N/A   Overcast
7:34 PM 10.4 °F -1.5 °F 5.0 °F 79% 30.01 in 10.0 mi East 8.1 mph - N/A   Overcast
7:53 PM 10.4 °F -3.3 °F 5.0 °F 79% 30.01 in 10.0 mi ESE 10.4 mph - N/A   Overcast
8:14 PM 10.4 °F -1.5 °F 5.0 °F 79% 30.01 in 10.0 mi ESE 8.1 mph - N/A   Overcast
8:34 PM 10.4 °F -1.5 °F 5.0 °F 79% 30.02 in 10.0 mi East 8.1 mph - N/A   Overcast
8:53 PM 10.4 °F -3.3 °F 5.0 °F 79% 30.02 in 10.0 mi East 10.4 mph - N/A   Overcast
9:14 PM 10.4 °F -1.5 °F 5.0 °F 79% 30.01 in 10.0 mi ESE 8.1 mph - N/A   Overcast
9:34 PM 10.4 °F -1.5 °F 5.0 °F 79% 30.01 in 10.0 mi ESE 8.1 mph - N/A   Overcast
9:54 PM 10.4 °F -2.4 °F 3.2 °F 73% 30.00 in 10.0 mi ESE 9.2 mph - N/A   Overcast
10:14 PM 10.4 °F -2.4 °F 5.0 °F 79% 30.00 in 10.0 mi ESE 9.2 mph - N/A   Overcast
10:34 PM 10.4 °F -2.4 °F 5.0 °F 79% 30.00 in 10.0 mi ESE 9.2 mph - N/A   Overcast
10:54 PM 10.4 °F -3.3 °F 5.0 °F 79% 30.01 in 10.0 mi East 10.4 mph - N/A   Overcast
11:14 PM 10.4 °F -1.5 °F 5.0 °F 79% 30.01 in 10.0 mi ESE 8.1 mph - N/A   Overcast
11:34 PM 10.4 °F -1.5 °F 5.0 °F 79% 30.00 in 10.0 mi ESE 8.1 mph - N/A   Overcast
11:54 PM 10.4 °F -2.4 °F 5.0 °F 79% 30.00 in 10.0 mi ESE 9.2 mph - N/A   Overcast